Flag for Germany Weather past 2 weeks in Neuruppin, Brandenburg, Germany

Now
70 °F

Partly sunny.


Feels Like: 70 °F
Forecast: 50 / 65 °F
Wind: 5 mph from Southwest

Location: Neuruppin

Current Time: Apr 25, 2015 at 3:26:07 PM

Latest Report: Apr 25, 2015 at 3:00 PM


Visibility: 6 mi

Pressure: 29.72 "Hg

Humidity: 35%

Dew point: 40 °F

Location of NeuruppinLocation

Historic Weather in Neuruppin — Graph

°F

Neuruppin temperature yesterday

Maximum temperature yesterday: 67 °F (at 4:00 PM)
Minimum temperature yesterday: 39 °F (at 6:00 AM)
Average temperature yesterday: 53 °F

Past Weeks' High & Low Weather Summary

 TemperatureHumidityPressure
High71 °F (Apr 15, 4:00 PM)99% (Apr 24, 7:00 AM)30.42 "Hg (Apr 24, 7:00 AM)
Low32 °F (Apr 14, 6:00 AM)22% (Apr 21, 1:00 PM)29.74 "Hg (Apr 25, 2:00 PM)
Average50 °F65%30.13 "Hg
* Reported Apr 10 2:00 PM — Apr 25 2:00 PM, Neuruppin, Weather by CustomWeather, © 2015

Note: Actual official high and low records may vary slightly from our data, if they occured in-between our weather recording intervals... More about our weather records

Advertising

Neuruppin weather history for previous 24 hours

 ConditionsComfort  
Time TempWeatherWind HumidityBarometerVisibility
2:00 PM
Sat, Apr 25
66 °FSunny.2 mph50%29.74 "Hg6 mi
1:00 PM62 °FOvercast.2 mph61%29.76 "Hg6 mi
12:00 PM58 °FOvercast.1 mph63%29.78 "Hg6 mi
10:00 AM56 °FPassing clouds.3 mph66%29.79 "Hg6 mi
9:00 AM53 °FPartly sunny.3 mph70%29.79 "Hg6 mi
8:00 AM49 °FOvercast.3 mph75%29.79 "Hg6 mi
7:00 AM43 °FPassing clouds.1 mph94%29.79 "Hg6 mi
6:00 AM42 °FSunny.1 mph96%29.79 "Hg1 mi
3:00 AM43 °FClear.No wind93%29.81 "Hg2 mi
1:00 AM46 °FClear.No wind90%29.83 "Hg2 mi
12:00 AM47 °FClear.No wind84%29.83 "Hg3 mi
10:00 PM
Fri, Apr 24
52 °FClear.No wind72%29.84 "Hg4 mi
9:00 PM57 °FPassing clouds.1 mph59%29.84 "Hg5 mi
8:00 PM63 °FSunny.1 mph46%29.83 "Hg4 mi
7:00 PM66 °FSunny.2 mph42%29.84 "Hg6 mi
6:00 PM67 °FSunny.3 mph39%29.84 "Hg6 mi
4:00 PM67 °FSunny.2 mph41%29.87 "Hg7 mi
3:00 PM64 °FSunny.3 mph43%29.88 "Hg6 mi
Weather by CustomWeather, © 2015

See weather overviewHow to use our weather pages